SCP
0 0 0 0 0 0 0 0 0 0 0 0 0 0 0 0 0 0 0 0 0 0 0 0 0 0 0 0 0 0 0 0 0 0 0 0 0 0 0 0 0 0 0
0 0 0 0 0 0 0 0 0 0 0 0 0 0 0 0 0 0 0 0 0 0 0 0 0 0 0 0 0 0 0 0 0 0 0 0 0 0 0 0 0 0 0
0 0 0 0 0 0 0 0 0 0 0 0 0 0 0 0 0 0 0 0 0 0 0 0 0 0 0 0 0 0 0 0 0 0 0 0 0 0 0 0 0 0 0
0 0 0 0 0 0 0 0 0 0 0 0 0 0 0 0 0 0 0 0 0 0 0 0 0 0 0 0 0 0 0 0 0 0 0 0 0 0 0 0 0 0 0
0 0 0 0 0 0 0 0 0 0 0 0 0 0 0 0 0 0 0 0 0 0 0 0 0 0 0 0 0 0 0 0 0 0 0 0 0 0 0 0 0 0 0
0 0 0 0 0 0 0 0 0 0 0 0 0 0 0 0 0 0 0 0 0 0 0 0 0 0 0 0 0 0 0 0 0 0 0 0 0 0 0 0 0 0 0
0 0 0 0 0 0 0 0 0 0 0 0 0 0 0 0 0 0 0 0 0 0 0 0 0 0 0 0 0 0 0 0 0 0 0 0 0 0 0 0 0 0 0
0 0 0 0 0 0 0 0 0 0 0 0 0 0 0 0 0 0 0 0 0 0 0 0 0 0 0 0 0 0 0 0 0 0 0 0 0 0 0 0 0 0 0
0 0 0 0 0 0 0 0 0 0 0 0 0 0 0 0 0 0 0 0 0 0 0 0 0 0 0 0 0 0 0 0 0 0 0 0 0 0 0 0 0 0 0
0 0 0 0 0 0 0 0 0 0 0 0 0 0 0 0 0 0 0 0 0 0 0 0 0 0 0 0 0 0 0 0 0 0 0 0 0 0 0 0 0 0 0
0 0 0 0 0 0 0 0 0 0 0 0 0 0 0 0 0 0 0 0 0 0 0 0 0 0 0 0 0 0 0 0 0 0 0 0 0 0 0 0 0 0 0
0 0 0 0 0 0 0 0 0 0 0 0 0 0 0 0 0 0 0 0 0 0 0 0 0 0 0 0 0 0 0 0 0 0 0 0 0 0 0 0 0 0 0
0 0 0 0 0 0 0 0 0 0 0 0 0 0 0 0 0 0 0 0 0 0 0 0 0 0 0 0 0 0 0 0 0 0 0 0 0 0 0 0 0 0 0
0 0 0 0 0 0 0 0 0 0 0 0 0 0 0 0 0 0 0 0 0 0 0 0 0 0 0 0 0 0 0 0 0 0 0 0 0 0 0 0 0 0 0
0 0 0 0 0 0 0 0 0 0 0 0 0 0 0 0 0 0 0 0 0 0 0 0 0 0 0 0 0 0 0 0 0 0 0 0 0 0 0 0 0 0 0
0 0 0 0 0 0 0 0 0 0 0 0 0 0 0 0 0 0 0 0 0 0 0 0 0 0 0 0 0 0 0 0 0 0 0 0 0 0 0 0 0 0 0
0 0 0 0 0 0 0 0 0 0 0 0 0 0 0 0 0 0 0 0 0 0 0 0 0 0 0 0 0 0 0 0 0 0 0 0 0 0 0 0 0 0 0
0 0 0 0 0 0 0 0 0 0 0 0 0 0 0 0 0 0 0 0 0 0 0 0 0 0 0 0 0 0 0 0 0 0 0 0 0 0 0 0 0 0 0
0 0 0 0 0 0 0 0 0 0 0 0 0 0 0 0 0 0 0 0 0 0 0 0 0 0 0 0 0 0 0 0 0 0 0 0 0 0 0 0 0 0 0
0 0 0 0 0 0 0 0 0 0 0 0 0 0 0 0 0 0 0 0 0 0 0 0 0 0 0 0 0 0 0 0 0 0 0 0 0 0 0 0 0 0 0
0 0 0 0 0 0 0 0 0 0 0 0 0 0 0 0 0 0 0 0 0 0 0 0 0 0 0 0 0 0 0 0 0 0 0 0 0 0 0 0 0 0 0
0 0 0 0 0 0 0 0 0 0 0 0 0 0 0 0 0 0 0 0 0 0 0 0 0 0 0 0 0 0 0 0 0 0 0 0 0 0 0 0 0 0 0
0 0 0 0 0 0 0 0 0 0 0 0 0 0 0 0 0 0 0 0 0 0 0 0 0 0 0 0 0 0 0 0 0 0 0 0 0 0 0 0 0 0 0
0 0 0 0 0 0 0 0 0 0 0 0 0 0 0 0 0 0 0 0 0 0 0 0 0 0 0 0 0 0 0 0 0 0 0 0 0 0 0 0 0 0 0
0 0 0 0 0 0 0 0 0 0 0 0 0 0 0 0 0 0 0 0 0 0 0 0 0 0 0 0 0 0 0 0 0 0 0 0 0 0 0 0 0 0 0
0 0 0 0 0 0 0 0 0 0 0 0 0 0 0 0 0 0 0 0 0 0 0 0 0 0 0 0 0 0 0 0 0 0 0 0 0 0 0 0 0 0 0
Wind_Speed
2 1 1 1 1 1 1 1 2 2 2 2 3 3 4 4 4 4 3 8 10 10 11 12 13 14 15 16 16 16 16 16 16 16 15 15 14 14 14 14 13 13 12
1 1 1 1 1 1 1 1 1 1 1 2 3 3 4 4 4 4 4 5 8 9 10 11 13 14 15 15 15 15 16 16 16 15 15 15 14 14 13 13 13 13 13
2 1 1 1 1 1 1 1 1 1 1 2 3 4 3 3 4 4 4 3 4 7 9 9 10 11 13 15 15 15 15 15 15 15 15 15 15 15 15 14 13 13 13
2 2 1 1 0 0 0 1 1 1 1 2 3 3 2 3 4 4 3 2 2 3 5 8 8 8 10 12 14 14 14 14 14 15 15 15 15 15 15 14 14 14 13
1 2 1 1 1 0 1 1 1 1 1 2 3 2 2 2 2 3 2 2 2 3 3 5 7 7 8 10 11 12 13 13 13 14 14 15 15 14 14 15 14 14 14
1 1 1 0 1 0 1 1 1 1 1 2 2 2 2 2 2 2 2 2 2 2 3 3 3 4 7 8 8 9 10 12 13 13 13 14 13 13 13 14 15 15 15
1 2 1 1 0 1 0 1 1 1 1 1 1 2 2 2 2 1 1 2 2 3 3 3 2 2 3 5 7 8 8 10 11 12 13 13 13 13 13 14 14 15 15
1 1 1 1 1 1 0 0 0 0 0 0 0 0 2 3 2 2 2 2 2 2 3 3 3 2 2 2 3 6 6 7 8 9 10 9 10 11 12 12 12 13 14
0 1 1 1 1 1 1 1 0 0 1 1 0 1 1 2 3 2 2 2 3 2 3 3 3 3 3 2 3 4 4 4 6 7 7 8 8 9 10 11 12 12 11
1 1 0 1 1 1 1 1 1 1 1 1 1 0 1 2 1 2 2 2 3 3 3 3 3 3 2 2 2 3 3 3 4 5 6 6 7 8 9 10 11 12 12
1 1 0 0 1 1 1 1 0 1 1 1 1 1 1 1 2 2 3 3 3 2 3 3 2 2 2 2 2 2 2 2 2 3 4 5 7 7 8 8 9 10 10
1 1 1 1 0 0 0 1 1 1 1 1 1 2 2 1 2 2 3 3 4 3 3 2 2 2 2 1 2 3 2 1 2 3 4 5 6 7 7 8 8 9 9
1 2 1 1 1 1 1 0 1 1 1 1 2 2 2 2 2 2 2 2 3 3 2 2 2 1 1 1 2 3 2 2 2 3 3 4 5 5 6 6 7 8 8
2 2 2 2 2 1 1 0 0 1 1 2 2 2 2 2 2 2 2 1 2 2 2 3 2 2 1 1 2 3 2 2 3 3 3 4 4 5 5 6 5 6 6
2 2 2 2 1 1 1 0 1 1 1 1 2 2 1 2 1 2 2 2 2 3 4 3 2 2 2 2 2 2 2 3 4 4 4 4 5 5 5 5 5 5 5
1 2 2 1 1 1 1 0 1 1 1 1 1 1 1 1 1 1 2 2 2 3 3 2 3 3 3 3 3 2 3 4 5 5 5 5 5 5 5 6 6 5 5
2 2 1 1 1 1 1 0 1 1 1 2 2 1 2 2 2 2 1 1 2 2 3 4 3 3 3 3 3 2 3 3 3 5 5 5 6 5 5 6 6 5 6
2 2 1 1 1 1 1 1 2 1 1 2 3 2 3 2 2 2 1 2 2 3 3 5 4 2 3 3 3 3 3 2 3 4 5 5 5 5 5 5 6 6 6
2 2 2 2 2 2 2 2 2 2 2 2 3 3 3 3 3 3 2 2 2 2 2 3 4 3 2 2 2 2 3 2 3 3 4 4 5 5 5 5 6 6 6
2 2 2 2 3 2 2 2 2 2 2 2 2 3 3 3 4 4 3 3 3 2 2 2 3 3 3 3 2 2 2 2 2 2 3 3 3 4 5 5 6 6 6
2 2 2 3 3 2 2 2 2 2 2 2 3 3 3 4 5 4 3 3 3 2 2 2 2 3 3 2 2 2 3 2 2 2 2 2 2 2 3 4 5 7 7
2 2 2 3 3 3 4 3 2 2 2 2 3 3 3 4 5 5 5 5 4 3 3 3 3 3 4 4 3 2 2 2 2 1 2 2 2 3 3 3 4 6 7
2 2 3 2 3 4 5 4 3 1 1 2 2 3 3 3 4 3 4 5 4 4 6 4 4 5 4 4 3 3 3 3 3 2 2 3 2 3 3 3 6 7 7
1 2 3 3 2 4 5 4 3 2 1 2 2 3 3 4 4 4 4 4 4 4 4 4 5 6 5 5 4 4 3 3 3 3 3 3 2 3 2 3 5 7 7
2 2 2 2 2 4 5 5 3 1 2 3 3 3 3 4 5 4 2 4 5 5 4 4 6 7 7 8 5 3 3 2 3 3 3 3 2 2 2 3 4 7 8
2 2 3 3 2 4 5 5 4 1 2 3 3 3 4 4 5 4 2 3 5 6 5 5 4 4 4 5 7 6 5 4 3 3 3 3 2 2 2 2 2 3 5
Wind_Direction
223 245 264 260 261 254 246 254 257 270 274 274 262 259 264 262 258 251 257 267 272 266 254 248 243 238 233 228 225 222 219 219 219 216 215 215 215 215 213 213 211 211 212
199 209 236 253 269 274 272 271 274 258 266 272 276 270 261 261 260 258 256 269 277 277 268 257 250 245 237 233 229 225 222 221 219 217 215 215 216 214 213 212 212 213 213
185 189 202 237 264 274 280 286 288 280 282 278 275 272 263 260 264 268 270 268 275 278 277 271 263 253 245 239 235 230 226 223 219 217 217 216 216 216 216 215 214 215 215
169 164 179 224 272 308 260 244 265 273 282 286 283 278 275 272 272 270 269 272 274 280 284 285 278 265 254 247 241 234 230 225 222 220 219 219 220 220 217 216 216 216 215
163 161 173 215 153 249 264 260 240 231 271 286 279 273 281 280 282 281 280 284 275 273 278 290 286 277 266 257 248 241 236 232 227 224 222 221 221 221 218 216 217 218 218
170 153 152 206 140 178 279 290 267 261 262 282 286 299 301 296 293 290 293 304 297 289 281 277 280 284 277 262 251 242 238 237 232 229 227 224 225 225 221 217 219 220 219
177 160 164 172 143 157 240 283 263 270 299 317 328 328 323 312 301 303 306 307 315 305 294 286 279 276 287 267 258 246 238 236 236 232 232 230 229 228 224 220 220 222 220
206 173 162 171 157 153 59 346 317 243 320 36 121 0 325 327 334 322 309 306 321 322 310 301 288 273 277 276 268 256 244 237 239 238 234 231 231 231 230 225 222 223 220
186 153 179 176 159 160 221 249 240 195 251 278 211 153 172 269 310 311 321 331 333 322 313 302 289 277 265 264 262 259 254 244 242 246 241 235 231 232 229 228 225 222 218
44 80 143 168 186 206 231 245 189 200 195 226 259 237 205 199 239 300 311 320 324 317 309 308 304 289 272 259 255 253 260 257 247 246 245 241 234 233 230 229 227 225 223
8 18 9 198 213 225 233 247 202 190 201 205 206 211 218 224 222 238 286 307 316 304 300 296 295 299 304 289 270 262 270 264 260 258 250 242 238 237 234 235 232 226 222
333 349 3 18 267 227 245 266 261 235 225 225 225 209 203 211 223 224 256 292 303 307 307 298 296 296 310 318 300 317 298 282 280 280 266 247 242 238 238 239 234 227 222
305 305 308 287 271 256 253 250 255 276 250 239 241 237 227 230 225 224 247 274 290 303 303 297 280 275 292 315 298 308 291 284 285 282 276 258 247 241 237 239 239 230 221
275 283 284 275 278 280 287 262 253 262 251 253 259 253 251 254 234 221 222 245 290 298 299 293 293 269 270 285 286 296 278 278 284 276 273 260 249 242 237 239 243 230 219
273 287 285 284 288 289 295 293 281 279 287 277 274 268 262 267 257 243 230 224 235 276 291 292 295 292 285 272 275 282 279 277 282 282 271 257 250 240 236 234 226 221 216
302 300 295 298 321 330 325 318 286 289 307 293 276 298 303 287 279 266 246 239 234 245 268 275 277 291 289 286 279 281 280 280 275 274 264 252 248 243 234 231 215 212 207
316 297 288 309 313 318 317 300 282 288 296 299 298 290 294 293 286 277 255 241 240 236 258 279 276 281 276 277 289 291 283 271 269 267 261 248 242 243 241 225 213 212 206
320 313 310 309 298 303 289 264 280 290 283 293 298 298 292 296 295 283 257 250 253 243 245 273 285 282 271 268 274 279 281 273 268 270 261 250 239 232 230 226 218 212 205
332 333 327 298 294 296 286 270 263 279 282 282 286 285 286 289 288 283 269 260 263 266 252 260 279 284 279 275 279 283 280 273 272 270 260 252 244 236 229 224 219 214 206
322 320 316 302 293 289 282 273 266 280 291 293 288 282 283 273 269 273 276 269 266 273 272 263 272 281 281 283 271 274 282 271 272 277 265 258 251 243 232 226 220 213 206
316 311 315 312 304 298 283 274 270 275 280 297 306 302 291 285 275 269 265 266 266 266 274 272 274 284 284 279 266 262 265 279 272 254 264 260 252 252 241 230 222 216 208
331 333 317 312 313 316 314 312 296 281 285 291 304 310 305 304 307 300 283 270 252 243 251 259 265 268 275 269 260 254 259 265 271 223 243 264 239 245 243 235 225 215 213
335 333 323 324 323 323 326 327 326 305 295 297 296 304 311 312 314 311 311 311 295 260 241 241 255 258 263 257 251 251 241 245 256 252 231 259 241 248 246 235 226 218 212
328 320 317 321 324 323 333 335 337 345 312 298 287 280 290 305 312 310 313 317 311 297 272 247 248 256 257 253 242 245 247 255 264 247 218 245 246 249 253 243 228 215 212
326 318 316 325 326 321 329 330 337 333 315 309 302 297 287 293 303 312 314 311 313 307 297 270 256 261 258 250 235 228 222 225 256 247 205 226 243 252 255 249 235 218 216
305 319 327 316 308 306 313 322 329 317 309 306 310 306 293 291 302 306 288 293 300 298 309 314 303 290 270 256 234 223 220 218 233 247 205 205 228 233 262 245 240 223 218